Weather History for Rolla, ND

Change the Weather History Date:

Wednesday, November 20, 2013

  Actual Average (KRUG) Record (KRUG)
Temperature  
Mean Temperature 17 °F -  
Max Temperature 28 °F 31 °F 56 °F (1962)
Min Temperature 6 °F 13 °F -17 °F (1978)
Degree Days  
Heating Degree Days 48    
Moisture  
Dew Point 12 °F    
Average Humidity 85    
Maximum Humidity 93    
Minimum Humidity 73    
Precipitation  
Precipitation 6.89 in - - ()
Sea Level Pressure  
Sea Level Pressure 29.95 in    
Wind  
Wind Speed 17 mph (NNW)    
Max Wind Speed 24 mph    
Max Gust Speed 32 mph    
Visibility 8 miles    
Events Rain , Snow    
Averages and records for this station are not official NWS values.
T = Trace of Precipitation, MM = Missing Value Source: NWS Daily Summary

Daily Weather History Graph

Daily Weather History Graph

Search for Another Location

Airport:

Trip Planner

Search our weather history database for the weather conditions in past years. The results will help you decide how hot, cold, wet, or windy it might be!

Date:

Astronomy

Nov. 20, 2013 Rise Set
Actual Time 7:55 AM CST 4:52 PM CST
Civil Twilight 7:20 AM CST 5:27 PM CST
Nautical Twilight 6:41 AM CST 6:06 PM CST
Astronomical Twilight 6:04 AM CST 6:43 PM CST
Moon 7:36 PM CST (11/20) 10:22 AM CST (11/20)
Length of Visible Light 10h 06m
Length of Day
8h 56m
Waning Gibbous, 91% of the Moon is Illuminated
Nov 20
Waning Gibbous
Nov 25
Last Quarter
Dec 2
New
Dec 9
First Quarter
Dec 17
Full

Hourly Weather History & Observations

Time (CST) Temp. Windchill Dew Point Humidity Pressure Visibility Wind Dir Wind Speed Gust Speed Precip Events Conditions
12:15 AM 28.4 °F 16.6 °F 26.6 °F 93% 29.58 in 10.0 mi NW 16.1 mph 19.6 mph N/A   Mostly Cloudy
12:35 AM 26.6 °F 15.2 °F 24.8 °F 93% 29.59 in 10.0 mi NW 13.8 mph 23.0 mph N/A   Mostly Cloudy
12:55 AM 26.6 °F 15.2 °F 24.8 °F 93% 29.62 in 10.0 mi NW 13.8 mph 20.7 mph N/A   Overcast
1:15 AM 26.6 °F 16.8 °F 24.8 °F 93% 29.63 in 10.0 mi NW 10.4 mph 20.7 mph N/A   Overcast
1:35 AM 26.6 °F 14.7 °F 23.0 °F 86% 29.64 in 10.0 mi NW 15.0 mph 26.5 mph N/A   Overcast
1:55 AM 24.8 °F 11.5 °F 23.0 °F 93% 29.65 in 10.0 mi NW 17.3 mph - N/A   Overcast
2:15 AM 24.8 °F 10.0 °F 19.4 °F 80% 29.66 in 10.0 mi NNW 21.9 mph 27.6 mph N/A   Overcast
2:35 AM 23.0 °F 8.3 °F 17.6 °F 80% 29.68 in 10.0 mi NW 19.6 mph 26.5 mph N/A   Overcast
2:55 AM 23.0 °F 8.0 °F 17.6 °F 80% 29.70 in 10.0 mi NNW 20.7 mph 26.5 mph N/A   Overcast
3:15 AM 21.2 °F 6.8 °F 17.6 °F 86% 29.72 in 10.0 mi NNW 17.3 mph 31.1 mph N/A   Overcast
3:35 AM 21.2 °F 5.2 °F 17.6 °F 86% 29.74 in 10.0 mi NW 21.9 mph 28.8 mph N/A   Overcast
3:55 AM 19.4 °F 2.5 °F 15.8 °F 86% 29.74 in 10.0 mi NNW 23.0 mph 32.2 mph N/A Snow Light Snow
4:15 AM 19.4 °F 2.8 °F 15.8 °F 86% 29.75 in 10.0 mi NNW 21.9 mph 27.6 mph N/A   Overcast
4:35 AM 17.6 °F 0.9 °F 14.0 °F 86% 29.75 in 10.0 mi NNW 20.7 mph 31.1 mph N/A   Overcast
4:55 AM 17.6 °F 0.5 °F 14.0 °F 86% 29.77 in 10.0 mi NNW 21.9 mph 31.1 mph N/A   Overcast
5:15 AM 17.6 °F -0.3 °F 14.0 °F 86% 29.78 in 10.0 mi NNW 24.2 mph 28.8 mph N/A   Overcast
5:35 AM 17.6 °F 0.1 °F 14.0 °F 86% 29.78 in 10.0 mi NNW 23.0 mph 32.2 mph N/A   Overcast
5:55 AM 17.6 °F 1.3 °F 14.0 °F 86% 29.81 in 10.0 mi NNW 19.6 mph - N/A   Overcast
6:15 AM 17.6 °F 0.9 °F 12.2 °F 79% 29.82 in 10.0 mi NNW 20.7 mph 27.6 mph N/A   Overcast
6:35 AM 15.8 °F -1.1 °F 10.4 °F 79% 29.83 in 10.0 mi NNW 19.6 mph 25.3 mph N/A   Overcast
6:55 AM 15.8 °F -1.5 °F 12.2 °F 86% 29.84 in 10.0 mi NNW 20.7 mph - N/A Snow Light Snow
7:15 AM 15.8 °F 0.9 °F 10.4 °F 79% 29.85 in 10.0 mi NNW 15.0 mph 24.2 mph N/A   Mostly Cloudy
7:35 AM 15.8 °F -1.5 °F 10.4 °F 79% 29.84 in 10.0 mi NNW 20.7 mph 25.3 mph N/A   Overcast
7:55 AM 15.8 °F 0.3 °F 10.4 °F 79% 29.85 in 10.0 mi NNW 16.1 mph 25.3 mph N/A   Overcast
8:15 AM 14.0 °F -3.0 °F 10.4 °F 86% 29.87 in 10.0 mi NNW 18.4 mph 21.9 mph N/A   Overcast
8:35 AM 14.0 °F -1.4 °F 10.4 °F 86% 29.89 in 10.0 mi NW 15.0 mph - N/A   Overcast
8:55 AM 14.0 °F -2.0 °F 8.6 °F 79% 29.90 in 10.0 mi NNW 16.1 mph - N/A   Overcast
9:15 AM 14.0 °F -2.0 °F 10.4 °F 86% 29.91 in 10.0 mi NNW 16.1 mph - N/A   Mostly Cloudy
9:35 AM 15.8 °F 0.9 °F 8.6 °F 73% 29.92 in 10.0 mi NNW 15.0 mph - N/A   Mostly Cloudy
9:55 AM 15.8 °F 2.1 °F 10.4 °F 79% 29.92 in 10.0 mi NNW 12.7 mph - N/A   Partly Cloudy
10:15 AM 15.8 °F 2.1 °F 8.6 °F 73% 29.93 in 10.0 mi North 12.7 mph - N/A   Mostly Cloudy
10:35 AM 15.8 °F 2.1 °F 8.6 °F 73% 29.95 in 10.0 mi NNW 12.7 mph - N/A   Overcast
10:55 AM 14.0 °F -0.2 °F 8.6 °F 79% 29.96 in 10.0 mi NNW 12.7 mph - N/A   Mostly Cloudy
11:15 AM 15.8 °F 1.4 °F 10.4 °F 79% 29.97 in 10.0 mi NW 13.8 mph 18.4 mph N/A   Clear
11:35 AM 17.6 °F 3.7 °F 10.4 °F 73% 29.96 in 10.0 mi NNW 13.8 mph - N/A   Scattered Clouds
11:55 AM 17.6 °F 3.7 °F 10.4 °F 73% 29.97 in 10.0 mi NNW 13.8 mph - N/A   Mostly Cloudy
12:15 PM 15.8 °F 1.4 °F 10.4 °F 79% 29.96 in 10.0 mi NNW 13.8 mph - N/A Snow Light Snow
12:35 PM 15.8 °F 1.4 °F 10.4 °F 79% 29.95 in 10.0 mi NNW 13.8 mph - N/A Snow Light Snow
12:55 PM 15.8 °F 0.3 °F 10.4 °F 79% 29.95 in 10.0 mi North 16.1 mph - N/A Snow Light Snow
1:15 PM 15.8 °F -0.2 °F 10.4 °F 79% 29.95 in 10.0 mi NNW 17.3 mph - N/A Snow Light Snow
1:35 PM 15.8 °F -0.2 °F 10.4 °F 79% 29.96 in 10.0 mi NNW 17.3 mph - N/A Snow Light Snow
1:55 PM 15.8 °F -0.2 °F 10.4 °F 79% 29.96 in 10.0 mi North 17.3 mph - N/A   Mostly Cloudy
2:15 PM 15.8 °F -0.6 °F 10.4 °F 79% 29.97 in 10.0 mi North 18.4 mph - N/A Snow Light Snow
2:35 PM 14.0 °F -3.9 °F 8.6 °F 79% 29.97 in 10.0 mi North 20.7 mph - N/A Rain Light Freezing Rain
2:55 PM 14.0 °F -3.4 °F 10.4 °F 86% 29.97 in 10.0 mi North 19.6 mph - N/A   Overcast
3:15 PM 14.0 °F -4.3 °F 10.4 °F 86% 29.98 in 10.0 mi North 21.9 mph 25.3 mph N/A   Overcast
3:35 PM 15.8 °F -1.9 °F 10.4 °F 79% 30.00 in 10.0 mi North 21.9 mph 27.6 mph N/A   Overcast
3:55 PM 15.8 °F -0.6 °F 10.4 °F 79% 30.02 in 10.0 mi North 18.4 mph - N/A   Overcast
4:15 PM 15.8 °F -1.5 °F 10.4 °F 79% 30.02 in 9.0 mi North 20.7 mph 25.3 mph N/A Snow Light Snow
4:35 PM 14.0 °F -2.5 °F 10.4 °F 86% 30.04 in 1.8 mi North 17.3 mph 23.0 mph 0.06 in Snow Light Snow
4:55 PM 14.0 °F -2.0 °F 10.4 °F 86% 30.05 in 1.0 mi North 16.1 mph - 0.25 in Snow Light Snow
5:15 PM 14.0 °F -2.5 °F 10.4 °F 86% 30.06 in 1.0 mi North 17.3 mph - 0.33 in Snow Light Snow
5:35 PM 14.0 °F -2.5 °F 10.4 °F 86% 30.07 in 1.5 mi North 17.3 mph - 0.72 in Snow Light Snow
5:55 PM 12.2 °F -3.7 °F 10.4 °F 92% 30.09 in 0.5 mi North 15.0 mph - 2.88 in Snow Snow
6:15 PM 12.2 °F -5.3 °F 10.4 °F 92% 30.10 in 0.8 mi North 18.4 mph - 0.39 in Snow Light Snow
6:35 PM 12.2 °F -4.8 °F 10.4 °F 92% 30.11 in 0.5 mi North 17.3 mph - 1.10 in Snow Snow
6:55 PM 12.2 °F -4.8 °F 10.4 °F 92% 30.11 in 0.8 mi North 17.3 mph - 1.75 in Snow Light Snow
7:15 PM 12.2 °F -5.3 °F 10.4 °F 92% 30.12 in 0.8 mi North 18.4 mph - 0.55 in Snow Light Snow
7:35 PM 10.4 °F -7.2 °F 8.6 °F 92% 30.13 in 1.8 mi NNE 17.3 mph - 1.07 in Snow Light Snow
7:55 PM 10.4 °F -7.2 °F 8.6 °F 92% 30.14 in 5.0 mi North 17.3 mph - 1.10 in Snow Light Snow
8:15 PM 10.4 °F -6.0 °F 8.6 °F 92% 30.16 in 3.0 mi North 15.0 mph - 0.05 in Snow Light Snow
8:35 PM 10.4 °F -4.8 °F 8.6 °F 92% 30.18 in 2.5 mi North 12.7 mph - 0.13 in Snow Light Snow
8:55 PM 10.4 °F -7.2 °F 8.6 °F 92% 30.19 in 2.5 mi North 17.3 mph - 0.28 in Snow Light Snow
9:15 PM 10.4 °F -7.2 °F 8.6 °F 92% 30.20 in 1.5 mi NNW 17.3 mph 21.9 mph 0.22 in Snow Light Snow
9:35 PM 8.6 °F -10.5 °F 6.8 °F 92% 30.21 in 2.0 mi NNW 19.6 mph 23.0 mph 0.44 in Snow Light Snow
9:55 PM 8.6 °F -8.9 °F 6.8 °F 92% 30.22 in 4.0 mi NNW 16.1 mph 24.2 mph 0.51 in Snow Light Snow
10:15 PM 8.6 °F -10.5 °F 6.8 °F 92% 30.23 in 2.5 mi NNW 19.6 mph - 0.04 in Snow Light Snow
10:35 PM 8.6 °F -8.9 °F 6.8 °F 92% 30.24 in 2.5 mi NNW 16.1 mph - 0.10 in Snow Light Snow
10:55 PM 8.6 °F -9.5 °F 5.0 °F 85% 30.25 in 10.0 mi NNW 17.3 mph 20.7 mph 0.11 in Snow Light Snow
11:15 PM 8.6 °F -9.5 °F 5.0 °F 85% 30.24 in 10.0 mi NNW 17.3 mph 24.2 mph N/A Snow Light Snow
11:35 PM 6.8 °F -12.4 °F 5.0 °F 92% 30.26 in 10.0 mi NNW 18.4 mph 25.3 mph N/A Snow Light Snow
11:55 PM 6.8 °F -13.8 °F 5.0 °F 92% 30.27 in 8.0 mi NNW 21.9 mph - 0.01 in Rain Light Freezing Rain